Погода в Стеде-Бруке

Нидерланды     52°41′55″N   5°15′01″E
темп.,
°C
ветер,
м/с
пор.,
м/с
влажн.,
%
обл.,
%
осадки,
мм/ч
давл.,
гПа
погр.,
м
14 апреля, ср
ср1423:00+5сз33655 0.1 1032319
02:00+5ссз33615 0.1 1032766
05:00+5ссз446612 0.1 1031768
08:00+5ссз456511 0.3 1032855
11:00+5ссв346824 0.4 1032694
14:00+6с666532 0.5 1032791
17:00+6с886789 0.0 1031946
20:00+6ссв89685 0.0 1031909
15 апреля, чт
чт1523:00+6с7873100 0.2 1031917
02:00+6с7876100 1.1 1031823
05:00+4св67765 0.1 1030660
08:00+4св57825 0.1 1031418
11:00+5всв56735 0.0 1032587
14:00+7св235821 0.0 1032585
17:00+8ссз445961 0.1 1031755
20:00+7св8961100 0.1 1031573
16 апреля, пт
пт1623:00+5св7969100 0.0 1032419
02:00+5св68725 0.0 1031352
05:00+5ссв57715 0.0 1030308
08:00+5ссв68785 0.0 1030444
11:00+7ссв57705 0.0 1030850
14:00+8с77645 0.0 1029724
17:00+8с99705 0.0 1028556
20:00+7ссв89670 0.0 1029614
17 апреля, сб
сб1723:00+6св79740 0.0 1029388
02:00+6св68794 0.0 1028298
05:00+6ссв56770 0.0 1028267
08:00+7с57754 0.0 1028410
11:00+8ссв566524 0.0 1027629
14:00+9с76655 0.0 1026420
17:00+8с886935 0.0 1026439
20:00+8с6774100 0.0 1025391
18 апреля, вс
вс1823:00+7ссв4572100 0.0 1026274
02:00+7ссв3471100 0.0 1024231
05:00+7ссв3471100 0.0 1024265
08:00+7с3380100 0.0 1023269
11:00+7с338599 0.0 1023417
14:00+8ссв3387100 0.1 1022307
17:00+8с4487100 0.0 1022321
20:00+8с4488100 0.1 1022309